Dewpoint
-0 1 1 2 -0 -5 -5 -4 0 1 1 1 1 1 2 2 1 1 1 1 2 3 3 3 4 4 3 4 2 5 7 6 5 3 4 7 5 4 0 -2 -3 -3 -3 -3 -3 -4 -4
0 0 1 1 1 1 -2 -6 -1 -0 1 1 0 1 0 -0 -0 -0 -0 -1 0 1 2 3 3 2 2 1 0 6 5 5 5 4 5 5 3 0 -3 -3 -2 -3 -3 -3 -4 -4 -4
0 0 1 1 1 1 1 -3 -7 -0 -0 -0 0 0 -0 -1 -2 -2 -2 -2 -1 1 3 2 1 -0 -0 0 1 5 4 5 3 5 6 3 3 -2 -3 -3 -3 -4 -3 -3 -3 -3 -3
1 1 1 1 1 1 1 1 -5 -4 -0 -1 -1 -0 -1 -3 -3 -3 -3 -3 -2 -0 2 2 1 1 1 -0 2 4 4 3 4 3 3 4 2 -1 -3 -3 -4 -3 -3 -1 -3 -3 -4
0 0 0 -1 -1 0 1 0 -2 -5 -2 -0 -1 -1 -2 -3 -4 -4 -3 -4 -3 -2 -0 1 1 2 1 -0 1 3 3 3 2 2 3 2 1 -4 -4 -3 -3 -4 -1 -2 -3 -3 -4
-0 1 1 -1 -1 -0 -1 -1 -2 -5 -2 -1 -1 -2 -3 -3 -5 -5 -5 -4 -4 -3 -3 -1 1 2 0 -0 -0 -1 -0 -1 -0 2 3 -2 -4 -4 -5 -4 -2 -3 -2 -3 -3 -4 -6
-1 0 1 -0 -1 -1 -3 -1 -4 -5 -2 -2 -2 -3 -3 -3 -3 -5 -6 -6 -5 -4 -3 -0 2 2 2 1 -2 -1 -1 1 -0 -2 -3 -4 -1 -2 -2 -3 -7 -4 -3 -2 -1 -4 -7
-2 1 0 -0 -1 -1 -3 -2 -7 -7 -3 -2 -2 -2 -3 -3 -2 -3 -6 -4 -0 -1 -2 -3 -2 0 1 -0 -2 1 3 -1 -3 -3 -4 -2 -1 -2 -3 -4 -5 -4 -4 -3 -4 -3 -5
-4 -0 0 -0 -1 -3 -3 -5 -7 -6 -6 -3 -3 -4 -3 -3 -3 -3 -4 -6 -5 1 -3 -4 -3 1 -1 -3 -3 3 -2 -4 -3 -2 -2 -1 -2 -3 -3 -2 -3 -2 -5 -4 -4 -5 -3
-6 -3 -0 -0 -1 -2 -5 -3 -6 -8 -5 -6 -5 -4 -5 -3 -3 -3 -4 -6 -5 1 -1 -2 -3 -3 -3 -4 -4 -4 -4 -5 -4 -2 -2 -1 -3 -2 -2 -0 -3 -3 -2 -3 -4 -7 -6
-8 -4 -1 -1 -1 -1 -4 -7 -3 -7 -7 -6 -6 -7 -7 -4 -4 -4 -4 -7 -2 -0 -0 -4 -3 -4 -4 -4 -3 -4 -5 -6 -3 -2 -4 -1 -2 -3 -1 -0 -2 -2 -3 -2 -2 -2 -5
-11 -9 -4 -2 -2 -2 -3 -6 -8 -4 -7 -6 -7 -5 -9 -8 -6 -7 -8 -7 -1 -0 -1 -2 -3 -2 -4 -4 -3 -5 -4 -6 -5 -5 -4 -2 -3 -1 -1 -1 -2 -2 -1 -3 -2 -4 -5
-12 -10 -8 -5 -4 -4 -3 -3 -7 -8 -5 -8 -7 -6 -9 -9 -8 -8 -6 -2 0 0 -4 -2 -2 -3 -3 -2 -3 -3 -2 -1 -1 -4 -4 -4 -3 -2 -1 -2 -3 -3 -5 -2 -4 -2 -3
-13 -11 -10 -7 -6 -5 -5 -4 -4 -7 -5 -5 -5 -3 -4 -7 -3 -1 -1 -2 -1 -2 -2 -4 -3 -4 -2 -3 -4 -2 -2 -1 -2 -3 -3 -4 -6 -0 0 1 -2 -1 -5 -2 -8 -2 -1
-12 -10 -10 -9 -7 -6 -6 -5 -3 -4 -6 -4 -4 -3 -1 -1 0 -1 -3 0 -1 -2 -3 -3 -5 -4 -4 -4 -4 -4 -2 -1 -1 -2 -2 -1 -0 -1 1 1 -2 -1 -0 -3 -1 -2 -2
-12 -11 -10 -9 -8 -6 -6 -7 -5 -3 -5 -4 -3 -4 -2 -2 -3 -4 -1 -0 -2 -3 -0 -2 -4 -5 -3 -3 -4 -4 -3 -2 -1 -2 -3 -2 -1 -1 0 -1 -1 -2 -2 -2 -1 -4 -2
-12 -12 -12 -9 -9 -7 -6 -5 -6 -4 -4 -5 -3 -5 -4 -6 -6 -6 -0 -2 -3 -3 -1 -2 -3 -4 -4 -4 -4 -2 -1 -3 -2 -3 -2 -3 -4 -1 -1 -2 -2 1 0 0 -3 -2 -2
-12 -12 -12 -12 -10 -8 -7 -7 -6 -6 -5 -6 -3 -2 -4 -6 -4 -2 -1 -3 -3 -2 -1 -1 -2 -3 -4 -4 -2 -2 -2 -1 -1 -1 -1 -1 -4 -1 -3 -1 -2 -3 -1 -1 -0 -3 -0
-12 -12 -13 -12 -11 -8 -7 -6 -7 -5 -5 -5 -3 -4 -5 -6 -2 -2 -2 -2 -1 -2 -1 -0 -1 -1 -2 -2 -2 -1 0 0 -0 0 -0 -2 -4 -3 -6 -2 -1 1 -0 -3 -3 -2 0
-12 -11 -12 -12 -11 -8 -7 -6 -7 -6 -5 -4 -4 -1 -5 -4 -2 -3 -2 -2 -3 -1 -0 -0 -0 -1 -1 -1 -1 -0 1 1 0 1 -0 -2 -2 -5 -6 -5 -1 1 0 -2 -3 -0 -2
-5 -11 -11 -11 -9 -8 -6 -5 -4 -6 -7 -5 -4 -1 -2 -1 -2 -3 -2 -2 -0 -1 -0 -0 -1 -1 -1 -0 -0 -0 1 1 1 1 0 -3 -1 -2 -2 -2 -1 -0 0 -0 -0 -2 -2
4 3 -4 -9 -10 -9 -5 -3 -3 -5 -7 -5 -3 -3 -2 -2 -2 -2 -3 -2 -1 -1 -1 -1 -0 -1 -1 -0 -2 -2 -0 1 -1 1 0 -1 -2 -0 -1 -2 -1 -0 -1 -1 -0 -0 -1
5 4 3 -3 -5 -6 -5 -1 -1 -2 -3 -3 -3 -2 -1 -1 -2 -3 -3 -3 -3 -2 -2 -1 -1 -1 -1 -2 -2 -2 -2 -2 -2 0 1 0 -0 -0 -2 -0 -1 -2 -2 -2 -2 -2 -2
5 4 4 3 -2 -4 -3 -3 -1 -1 -1 -1 -1 -1 -2 -3 -1 -2 -3 -4 -3 -3 -3 -2 -1 -2 -3 -1 -2 -2 -2 -2 -2 -2 -0 0 -1 -0 1 -1 0 -4 -4 -4 -2 -3 -3
4 4 5 4 2 -1 -1 -1 -2 -1 -0 -0 -1 -1 -1 -2 -1 -1 0 -1 -2 -2 -2 -2 -2 -2 -1 -2 -3 -1 -1 -2 -2 -2 -1 -1 -0 1 2 1 -1 -2 -5 -4 -3 -4 -4
4 4 5 5 4 2 0 0 1 0 -0 0 0 -0 -1 -0 -2 -1 -2 -2 -1 -1 -1 -3 -2 -1 -1 -2 -1 1 0 -1 -1 -1 -2 -1 -1 -0 1 2 3 -2 -7 -6 -7 -1 -7
2 4 5 5 5 4 1 1 1 1 1 1 1 1 0 -1 -1 0 0 -0 -1 -1 -1 -0 -2 -2 -1 -1 1 1 1 -2 -0 -2 1 1 1 3 2 2 1 -3 -4 -5 -0 -1 -6
1 2 4 4 4 4 3 2 2 2 2 2 2 2 2 1 0 0 0 1 -0 -0 -0 -1 -1 -1 -1 -0 0 0 0 -1 -2 -3 -0 1 1 2 2 4 3 -3 -4 -2 -3 -4 -2
-3 -2 -0 2 4 5 4 2 2 2 3 3 3 2 2 3 1 1 1 1 1 1 1 -0 -1 -1 -1 -1 -1 -1 1 -1 -1 1 -3 -1 -1 0 0 0 -3 -3 -5 -4 -4 -2 -2
Wind_Speed
23 24 23 22 22 21 19 14 13 17 15 15 13 12 13 12 13 14 15 15 15 15 16 10 7 7 8 3 3 4 11 10 11 21 11 12 15 5 3 8 7 6 3 6 7 8 6
24 24 24 24 24 23 20 14 11 12 13 14 12 10 11 11 12 13 14 13 11 13 17 7 4 5 2 1 5 10 11 11 14 14 16 13 7 2 5 5 4 7 10 5 11 8 8
22 23 24 24 24 24 23 16 10 8 9 10 9 10 11 13 12 13 13 13 9 8 13 9 11 7 7 5 1 13 9 8 14 8 18 11 2 4 5 7 11 9 6 5 13 8 4
21 23 24 24 25 26 25 19 11 8 6 6 7 9 10 12 12 11 10 11 10 11 23 15 11 12 7 9 10 10 9 5 11 8 8 13 3 4 2 17 6 5 5 5 5 9 4
20 22 24 25 27 28 28 20 11 8 8 5 5 7 10 13 15 9 12 13 5 6 16 21 17 10 6 8 10 11 14 11 8 5 13 3 3 4 4 5 5 8 4 4 2 5 3
19 22 24 26 29 32 31 19 12 9 8 5 4 6 9 13 17 9 8 9 20 11 5 10 12 7 9 10 10 8 5 7 6 9 6 1 3 3 5 5 5 5 6 3 3 4 4
19 22 24 26 29 33 32 20 13 10 10 6 3 4 5 9 17 22 11 6 8 13 20 17 16 11 11 9 14 12 13 13 15 6 3 6 7 3 3 3 4 7 6 5 1 3 2
18 21 24 26 29 31 32 22 14 11 11 7 4 3 2 5 14 18 16 17 10 5 4 18 18 15 19 14 22 16 16 4 2 4 2 7 4 5 3 3 7 6 6 3 1 4 1
18 20 23 26 28 30 30 23 14 12 9 9 5 4 6 5 11 13 17 16 12 8 3 13 19 12 11 16 12 13 7 2 7 8 7 6 3 3 4 7 7 5 5 3 2 3 3
16 19 21 24 27 28 28 26 16 11 11 9 8 7 9 12 11 12 13 13 9 6 5 11 8 6 7 3 7 11 4 3 8 5 3 5 6 5 6 7 3 4 2 3 4 4 2
15 17 19 22 25 27 28 26 22 12 9 9 13 12 11 12 14 12 13 7 5 1 5 12 8 7 10 7 3 11 13 8 4 4 4 2 5 8 9 4 2 3 3 4 3 5 3
14 16 18 20 23 26 28 28 26 21 9 9 14 17 11 5 5 6 5 3 2 6 2 8 6 7 5 11 6 6 8 12 3 7 8 3 3 5 2 3 4 5 5 6 4 3 3
13 15 17 19 22 24 27 28 29 27 14 8 9 13 12 8 5 5 3 2 5 6 3 8 4 6 2 7 6 7 5 7 4 5 5 6 4 4 5 4 4 5 5 3 4 4 5
13 15 18 20 21 23 25 27 29 30 21 9 6 11 11 8 7 5 3 5 9 4 3 4 3 4 5 6 5 8 3 5 7 5 4 4 6 6 7 3 2 3 3 5 5 2 4
12 13 16 18 20 22 24 25 27 30 27 12 3 10 17 10 9 3 1 7 4 3 4 6 2 6 6 5 3 5 5 3 2 4 3 4 2 2 3 2 2 1 3 3 7 2 3
11 12 13 15 17 20 22 24 26 28 28 17 5 3 22 11 9 4 6 5 3 4 1 1 3 3 3 6 5 5 6 3 4 3 1 3 4 1 2 1 5 2 6 4 3 1 3
10 11 12 14 16 17 20 22 23 26 26 19 7 2 20 11 8 10 4 2 1 1 1 2 3 3 2 4 2 2 1 2 3 5 3 2 3 3 2 2 5 2 1 5 4 3 4
10 11 11 13 15 16 18 22 23 23 24 18 6 4 17 8 6 5 3 2 2 2 2 1 1 1 3 2 3 3 2 1 5 2 3 1 3 2 1 1 1 1 3 4 4 4 1
10 10 11 12 13 15 17 19 22 24 23 17 4 5 12 9 4 2 2 2 2 2 3 4 2 2 1 1 3 2 3 2 3 3 2 1 2 3 5 3 4 2 3 3 4 2 6
10 11 12 12 13 13 15 17 18 21 22 16 4 3 7 11 7 4 2 1 2 1 2 2 1 2 2 2 2 2 1 0 1 4 5 4 3 3 5 2 2 3 3 4 4 2 4
8 11 12 12 11 12 14 16 17 18 19 13 8 3 3 2 5 4 3 1 2 2 2 3 2 1 1 1 1 2 1 2 0 4 2 3 4 4 6 9 6 7 6 7 9 9 8
9 11 12 12 13 11 11 13 16 17 15 8 4 4 3 2 2 2 2 2 1 1 1 1 1 2 1 3 3 2 3 2 4 1 0 2 3 5 4 2 5 6 12 13 15 16 14
12 11 12 12 11 11 10 11 13 14 15 6 6 5 2 3 3 1 2 3 3 2 2 3 4 3 2 4 5 7 6 5 2 3 4 2 4 2 5 4 4 8 12 15 4 5 11
16 14 13 13 11 11 11 11 11 13 13 11 8 4 2 1 1 2 2 2 2 1 2 2 4 3 2 1 5 7 8 9 5 7 2 4 3 1 4 3 3 5 0 3 9 7 13
21 17 15 14 13 12 10 10 9 9 9 9 9 5 3 1 3 3 3 3 3 4 2 4 4 3 3 3 2 4 3 2 1 3 4 3 3 2 2 3 8 7 1 3 5 6 7
25 22 18 17 16 15 12 11 10 8 8 7 5 6 5 1 3 4 1 1 2 1 5 2 3 2 1 3 2 3 4 3 3 2 3 5 5 5 3 3 5 3 3 2 1 5 3
29 25 22 21 21 19 16 13 11 9 8 7 6 5 2 4 4 4 3 3 3 2 2 3 1 2 4 2 3 4 4 2 4 5 5 4 2 10 9 5 7 7 6 3 2 4 5
23 24 25 23 23 23 19 17 14 12 9 9 8 8 7 5 9 11 10 9 6 5 4 4 2 2 2 2 3 3 4 4 1 3 5 7 7 5 4 4 9 5 4 6 4 3 5
27 26 24 25 27 25 23 21 18 16 13 11 11 10 8 9 8 11 16 14 13 14 5 8 3 4 8 3 2 1 3 1 2 3 1 3 6 5 9 7 2 6 7 8 6 6 6
Wind_Direction
32 37 33 25 18 12 18 19 20 19 23 29 39 44 39 33 27 25 24 32 38 24 22 41 87 107 148 206 12 200 161 154 135 155 192 178 167 260 149 116 95 89 134 63 85 100 73
30 33 33 27 22 15 11 15 20 21 25 31 51 43 38 25 19 16 8 8 10 12 16 83 103 110 150 17 330 180 160 141 154 172 179 183 184 310 118 82 91 125 109 97 65 72 56
26 27 28 26 23 16 11 7 12 12 24 30 34 29 27 23 16 10 8 6 39 38 7 80 105 96 90 17 357 178 154 113 149 159 181 186 29 324 142 90 116 117 80 64 26 8 41
26 21 22 22 22 16 6 4 7 14 5 15 21 22 19 23 12 7 22 21 35 75 63 49 80 43 71 74 94 152 182 145 163 152 194 181 288 325 76 119 58 70 51 84 346 1 8
26 22 20 21 19 15 4 358 7 28 20 15 19 30 24 21 12 16 53 39 6 58 61 47 43 66 29 77 87 126 144 149 156 152 195 229 249 90 93 87 56 22 116 90 59 29 331
24 22 18 19 19 15 8 6 15 30 38 37 40 40 28 36 41 41 34 51 53 72 62 39 33 64 36 31 103 116 151 156 142 137 150 261 34 67 42 58 158 136 102 65 116 337 24
22 22 19 18 20 18 14 17 22 32 34 45 44 30 25 37 37 36 52 55 74 68 63 79 78 79 35 66 72 94 137 144 115 88 59 26 62 46 325 16 114 115 97 107 355 349 26
21 21 20 19 20 21 20 20 28 29 28 32 20 345 334 20 24 26 40 46 39 27 86 67 62 62 53 59 63 73 123 72 121 83 40 29 62 312 323 77 92 70 109 78 23 3 54
17 18 21 19 20 20 21 21 22 22 20 8 2 311 292 298 356 16 20 27 16 6 37 33 70 56 33 39 49 74 333 106 78 65 47 100 284 354 81 44 82 39 109 125 108 18 69
14 15 18 17 18 20 19 22 16 5 6 8 343 307 282 284 315 340 355 1 4 0 69 334 2 45 1 357 30 32 355 58 39 95 77 72 341 62 65 72 25 87 331 85 70 77 212
7 12 14 14 13 15 17 16 17 360 349 5 15 345 299 276 285 308 320 333 355 47 55 315 329 352 31 124 317 16 37 59 63 54 79 306 18 42 52 341 332 134 78 81 83 88 74
1 2 8 11 9 10 12 12 9 8 336 315 341 355 354 340 330 323 329 335 20 44 330 335 339 350 8 32 22 11 50 77 123 72 39 66 40 59 52 22 53 152 69 46 58 75 34
353 356 360 6 7 8 7 8 7 6 9 352 354 2 19 28 39 27 3 7 43 84 322 320 334 2 37 6 19 31 30 28 57 77 11 9 13 355 36 63 20 62 56 5 1 8 220
346 350 355 359 5 7 7 6 5 3 4 10 26 21 22 30 17 14 11 53 65 255 253 288 326 342 55 3 19 6 37 36 30 69 85 104 345 7 339 63 136 58 118 147 198 199 270
346 347 352 354 360 4 5 7 6 1 1 2 350 27 20 358 353 17 153 53 158 228 326 340 6 51 355 6 35 60 46 35 336 28 117 133 17 324 31 22 57 183 57 151 104 63 42
338 337 344 350 357 359 360 5 6 4 1 359 9 350 7 13 11 27 73 121 147 192 170 37 32 7 44 339 44 35 14 327 353 33 280 197 84 5 312 104 36 72 152 67 3 138 277
331 328 334 341 347 354 354 357 6 4 4 1 11 12 7 7 26 51 85 118 196 304 296 118 136 56 37 10 48 50 353 11 15 336 41 97 91 286 347 203 180 91 73 55 112 129 174
317 321 324 329 335 344 352 351 358 4 3 8 10 32 1 11 44 51 73 15 116 14 8 358 54 112 138 116 59 57 29 345 353 344 43 354 129 160 171 336 144 154 187 150 128 223 230
304 309 314 322 325 337 348 350 352 1 2 5 28 0 10 19 80 30 145 103 91 55 16 4 22 22 338 103 100 160 161 161 46 58 81 12 17 14 349 12 8 260 209 124 96 82 205
310 311 309 312 318 331 340 347 354 359 359 0 1 28 30 55 65 97 71 17 91 103 122 111 353 352 10 14 3 190 212 270 60 124 127 122 101 153 190 215 148 257 225 197 152 149 178
322 307 305 307 318 322 335 342 351 0 359 9 18 50 25 342 23 71 44 12 36 13 18 1 22 171 177 235 310 288 295 304 301 159 107 113 188 172 227 219 197 204 212 193 208 224 201
320 331 325 313 310 318 332 344 348 355 1 21 48 16 15 73 360 71 44 97 64 5 154 345 71 359 313 279 211 274 155 235 221 339 177 336 199 164 261 193 205 259 237 224 219 229 243
295 311 322 316 311 318 326 337 344 354 5 22 35 37 22 2 353 31 231 170 163 141 191 201 181 141 219 238 294 289 273 295 289 171 205 166 141 81 283 9 330 287 228 211 183 217 220
278 290 304 313 303 308 314 322 332 344 359 9 8 3 99 279 82 260 329 313 272 230 282 263 198 164 209 252 290 270 263 259 242 252 176 137 111 358 288 346 219 252 51 131 205 236 218
270 270 282 290 292 288 293 300 307 320 334 347 353 354 336 273 215 260 232 249 307 303 276 281 282 266 296 326 25 338 329 354 49 85 167 120 125 314 283 249 301 307 46 141 172 283 208
267 268 266 273 280 278 277 284 289 296 306 312 329 345 332 312 242 241 123 192 190 239 326 257 260 251 224 70 84 232 243 238 255 181 49 121 126 161 155 238 252 265 322 6 325 278 156
265 262 255 264 269 272 268 269 272 277 285 291 296 295 279 278 297 250 203 195 187 172 211 270 250 210 183 125 179 207 249 222 240 197 170 129 175 214 214 248 278 245 238 310 151 252 179
268 264 258 253 260 262 265 262 266 269 275 284 281 274 257 233 265 265 256 220 206 209 172 176 40 213 77 180 183 236 206 230 251 175 184 176 164 195 192 221 264 181 116 173 211 172 185
266 265 263 257 249 253 256 256 257 262 269 277 278 283 254 248 266 270 269 254 256 245 238 199 238 163 199 124 212 354 256 262 198 261 17 248 198 190 194 212 240 215 229 252 229 200 205
Height
1537 1533 1530 1526 1522 1518 1516 1512 1509 1507 1504 1502 1499 1497 1495 1493 1491 1487 1485 1483 1481 1478 1476 1475 1474 1474 1475 1477 1477 1476 1479 1482 1484 1486 1490 1494 1496 1499 1495 1493 1497 1503 1509 1509 1510 1511 1514
1538 1535 1532 1528 1523 1519 1516 1513 1510 1508 1506 1504 1501 1499 1497 1496 1493 1490 1487 1485 1483 1481 1479 1477 1476 1476 1477 1479 1477 1478 1481 1484 1485 1489 1492 1495 1498 1499 1496 1495 1498 1503 1508 1511 1512 1513 1515
1540 1537 1534 1530 1525 1521 1516 1513 1510 1508 1507 1505 1503 1501 1500 1497 1495 1492 1489 1486 1485 1483 1480 1477 1478 1477 1478 1480 1479 1480 1484 1486 1487 1492 1493 1495 1498 1499 1495 1497 1503 1505 1511 1511 1514 1516 1517
1542 1539 1536 1531 1527 1522 1517 1512 1510 1508 1507 1506 1504 1503 1501 1499 1496 1493 1491 1488 1487 1486 1484 1481 1480 1479 1480 1481 1481 1484 1486 1489 1490 1493 1494 1496 1498 1498 1495 1498 1503 1509 1515 1522 1519 1518 1518
1544 1541 1537 1533 1528 1522 1517 1511 1509 1509 1507 1506 1505 1504 1503 1500 1496 1494 1493 1490 1488 1487 1485 1484 1485 1483 1485 1485 1486 1488 1490 1492 1493 1495 1495 1498 1498 1497 1497 1502 1513 1518 1527 1523 1522 1522 1520
1547 1543 1538 1534 1529 1523 1517 1512 1510 1509 1508 1507 1506 1505 1504 1502 1499 1497 1495 1493 1492 1489 1488 1487 1487 1488 1490 1490 1489 1490 1491 1493 1495 1495 1499 1499 1497 1500 1503 1508 1527 1519 1528 1526 1525 1526 1522
1548 1545 1541 1536 1531 1526 1519 1514 1511 1511 1510 1508 1507 1506 1505 1503 1501 1499 1495 1495 1496 1495 1492 1495 1495 1495 1494 1492 1492 1493 1494 1496 1496 1499 1503 1502 1512 1520 1514 1512 1510 1516 1521 1527 1528 1527 1526
1550 1546 1543 1538 1533 1528 1522 1517 1514 1513 1512 1510 1509 1507 1505 1504 1502 1501 1500 1499 1500 1501 1499 1498 1497 1496 1494 1492 1492 1494 1495 1499 1499 1503 1504 1513 1520 1516 1512 1511 1513 1517 1524 1529 1529 1528 1527
1551 1548 1544 1540 1535 1531 1526 1521 1518 1515 1513 1512 1510 1509 1507 1505 1504 1503 1501 1502 1501 1500 1500 1500 1502 1499 1499 1497 1499 1502 1504 1501 1499 1507 1512 1520 1522 1514 1514 1518 1518 1531 1528 1528 1528 1530 1534
1552 1549 1546 1542 1538 1534 1529 1524 1520 1517 1514 1512 1511 1509 1507 1506 1507 1504 1503 1502 1502 1501 1514 1513 1505 1506 1505 1500 1502 1506 1501 1502 1504 1514 1516 1523 1519 1517 1519 1524 1526 1526 1530 1528 1531 1539 1549
1553 1551 1548 1544 1540 1535 1531 1527 1522 1518 1515 1512 1510 1507 1505 1504 1504 1504 1504 1502 1501 1502 1541 1515 1510 1507 1505 1506 1507 1505 1502 1501 1511 1517 1518 1528 1523 1524 1527 1530 1527 1530 1530 1532 1537 1544 1551
1554 1551 1549 1546 1542 1537 1532 1528 1523 1518 1514 1512 1510 1507 1503 1502 1501 1502 1502 1501 1502 1519 1541 1524 1514 1512 1508 1506 1507 1507 1506 1506 1512 1515 1520 1527 1525 1527 1530 1530 1528 1530 1531 1538 1545 1550 1571
1554 1552 1549 1547 1544 1539 1535 1529 1524 1519 1514 1511 1509 1507 1504 1502 1502 1501 1501 1501 1518 1541 1531 1527 1523 1517 1516 1517 1513 1513 1516 1518 1521 1531 1532 1530 1531 1531 1531 1531 1531 1532 1540 1573 1564 1580 1564
1554 1552 1550 1547 1544 1540 1536 1531 1526 1521 1516 1513 1511 1508 1506 1504 1503 1502 1502 1506 1537 1538 1532 1525 1523 1520 1521 1521 1520 1520 1519 1526 1525 1528 1540 1547 1554 1538 1536 1537 1537 1539 1542 1568 1560 1570 1573
1553 1551 1550 1547 1544 1540 1537 1533 1527 1522 1518 1513 1512 1510 1507 1505 1504 1502 1504 1530 1540 1536 1532 1528 1523 1525 1527 1523 1521 1523 1530 1532 1530 1529 1532 1538 1541 1539 1538 1537 1539 1541 1553 1551 1576 1586 1585
1552 1551 1549 1547 1544 1540 1536 1533 1529 1524 1518 1514 1511 1510 1508 1506 1504 1504 1508 1530 1531 1529 1528 1530 1530 1530 1529 1530 1528 1529 1532 1532 1531 1530 1530 1533 1541 1540 1539 1539 1540 1539 1546 1557 1567 1560 1565
1552 1550 1548 1546 1544 1541 1537 1533 1529 1525 1519 1514 1512 1511 1510 1507 1505 1505 1529 1533 1531 1530 1529 1528 1529 1531 1532 1532 1530 1533 1535 1534 1533 1532 1531 1533 1540 1545 1542 1541 1542 1546 1548 1554 1557 1565 1567
1550 1549 1547 1545 1543 1541 1538 1534 1530 1525 1520 1515 1513 1514 1513 1509 1510 1519 1530 1528 1528 1530 1529 1529 1528 1527 1528 1529 1533 1534 1535 1535 1534 1532 1534 1536 1541 1553 1539 1541 1540 1541 1541 1545 1555 1557 1569
1549 1548 1546 1544 1543 1541 1538 1535 1532 1527 1522 1517 1516 1516 1515 1511 1526 1528 1526 1527 1528 1528 1530 1530 1530 1530 1530 1530 1531 1530 1531 1532 1532 1533 1535 1535 1542 1559 1543 1544 1542 1542 1542 1545 1551 1556 1559
1547 1546 1545 1544 1542 1540 1538 1536 1532 1529 1525 1521 1518 1520 1518 1518 1524 1527 1529 1529 1528 1528 1528 1529 1531 1531 1531 1531 1532 1532 1532 1533 1532 1531 1531 1532 1544 1544 1555 1541 1544 1544 1543 1545 1544 1563 1550
1546 1545 1544 1543 1541 1540 1539 1537 1534 1530 1527 1524 1523 1526 1526 1530 1527 1528 1530 1531 1531 1531 1530 1531 1531 1531 1531 1532 1532 1533 1534 1533 1532 1531 1531 1533 1537 1546 1541 1538 1538 1535 1536 1542 1547 1535 1534
1545 1544 1543 1542 1541 1540 1539 1537 1535 1532 1529 1526 1526 1529 1529 1528 1529 1528 1528 1531 1531 1531 1532 1533 1533 1533 1535 1535 1533 1531 1532 1535 1532 1535 1535 1535 1536 1539 1535 1535 1540 1539 1530 1529 1524 1520 1521
1544 1543 1542 1541 1540 1539 1538 1537 1536 1534 1532 1529 1527 1528 1528 1532 1531 1531 1529 1527 1527 1527 1529 1529 1529 1530 1531 1532 1532 1532 1532 1532 1533 1535 1538 1539 1541 1544 1536 1533 1530 1525 1507 1508 1512 1515 1511
1541 1541 1540 1540 1538 1538 1538 1537 1535 1535 1534 1533 1531 1529 1526 1531 1533 1533 1531 1530 1529 1528 1530 1530 1529 1529 1529 1528 1528 1528 1528 1527 1529 1532 1536 1541 1544 1547 1548 1538 1542 1499 1497 1498 1503 1500 1500
1535 1536 1537 1537 1536 1536 1536 1535 1534 1534 1534 1534 1533 1532 1530 1529 1528 1527 1528 1530 1530 1530 1530 1530 1530 1531 1530 1530 1531 1530 1530 1526 1528 1529 1530 1537 1543 1543 1548 1549 1522 1496 1500 1501 1500 1493 1488
1530 1530 1532 1533 1533 1533 1533 1533 1533 1532 1532 1532 1531 1532 1534 1530 1527 1527 1526 1527 1528 1530 1530 1528 1527 1527 1530 1531 1533 1531 1528 1523 1525 1528 1530 1530 1531 1535 1546 1549 1530 1505 1501 1500 1499 1502 1489
1523 1524 1526 1528 1529 1529 1530 1530 1530 1530 1531 1531 1531 1530 1529 1531 1531 1529 1526 1526 1527 1527 1528 1526 1527 1527 1527 1531 1534 1537 1532 1526 1524 1526 1532 1534 1537 1529 1529 1532 1516 1498 1496 1497 1504 1495 1488
1516 1517 1519 1521 1523 1524 1526 1527 1527 1528 1528 1530 1529 1528 1530 1525 1523 1525 1528 1524 1525 1525 1525 1524 1526 1525 1529 1532 1533 1530 1532 1524 1522 1521 1525 1525 1527 1525 1523 1523 1515 1490 1494 1500 1492 1489 1490
1510 1511 1512 1514 1516 1518 1520 1522 1523 1524 1525 1526 1527 1527 1525 1526 1523 1521 1520 1522 1524 1523 1523 1522 1522 1519 1520 1525 1529 1531 1529 1528 1525 1522 1518 1521 1512 1515 1511 1500 1489 1488 1487 1487 1487 1487 1488